{"data":{"norad_id":68003,"intl_designator":"2026-039T","name":"STARLINK-36862","alt_names":[],"object_type":"PAYLOAD","status":"ACTIVE","operator":null,"country":"US","launch_date":"2026-02-27","launch_site_code":"AFETR","launch_vehicle":null,"mission":null,"orbit_class":"UNKNOWN","rcs_meters":null,"size_class":null,"mass_kg":null,"dimensions":null,"purposes":["comms"],"wikipedia_slug":null,"has_3d_model":false,"image_url":null,"decayed_at":null,"tle_current":{"epoch":"2026-09-19T16:59:02.636160Z","epoch_age_seconds":128117,"freshness":"FRESH","line1":"1 68003U 26039T   26262.70766940  .00022656  00000+0  83013-3 0  9992","line2":"2 68003  43.0025  33.4233 0002300 280.4292  79.6300 15.27585489 31376","mean_motion":15.27585489,"eccentricity":0.00023,"inclination_deg":43.0025,"raan_deg":33.4233,"arg_perigee_deg":280.4292,"mean_anomaly_deg":79.63,"bstar":0.00083013,"rev_number":3137,"period_min":94.266409989444,"perigee_km":481.4545910264,"apogee_km":484.61072907002,"semimajor_km":6861.1696600482,"source":"CELESTRAK","updated_at":"2026-09-20T09:00:43.738385Z"}}}